Regional Weather Roundup
Issued by NWS

Home | Current Version | Previous Version | Text Only | Print | Product List | Glossary Off
Versions: 1 2 3 4 5 6 7 8 9 10 11 12 13 14 15 16 17 18 19 20 21 22 23 24 25 26 27 28 29 30 31 32 33 34 35 36 37 38 39 40 41 42 43 44 45 46 47 48 49 50

000
ASUS43 KBIS 282010
RWRND

NORTH DAKOTA REGIONAL WEATHER ROUNDUP
NATIONAL WEATHER SERVICE BISMARCK ND
300 PM CDT FRI AUG 28 2015

NOTE: "FAIR" INDICATES FEW OR NO CLOUDS BELOW 12,000 FEET WITH NO
SIGNIFICANT WEATHER AND/OR OBSTRUCTIONS TO VISIBILITY.


NDZ001>003-009>011-017-282100-
NORTHWEST NORTH DAKOTA

CITY           SKY/WX    TMP DP  RH WIND       PRES   REMARKS
WILLISTON      SUNNY     87  60  40 S8        29.89S
MINOT          SUNNY     84  57  39 W5        29.86S
MINOT AFB      SUNNY     86  59  39 N3        29.85S
$$

NDZ018>021-031>035-040>046-282100-
SOUTHWEST NORTH DAKOTA

CITY           SKY/WX    TMP DP  RH WIND       PRES   REMARKS
BISMARCK       SUNNY     88  66  48 SW12      29.89S HX  90
DICKINSON      SUNNY     89  49  25 N5        29.92S
GARRISON         N/A     84  30  14 VRB6      29.88S
HETTINGER ARPT SUNNY     88  51  28 W12       29.97R
$$

NDZ004>008-012>016-024-026-027-054-282100-
NORTHEAST NORTH DAKOTA

CITY           SKY/WX    TMP DP  RH WIND       PRES   REMARKS
GRAND FORKS    MOSUNNY   85  67  54 SW25G31   29.81S
GRND FRKS AFB  SUNNY     85  68  57 S21       29.81S
DEVILS LAKE    SUNNY     82  63  51 SW9       29.83S
$$

NDZ022-023-025-028>030-036>039-047>053-282100-
SOUTHEAST NORTH DAKOTA

CITY           SKY/WX    TMP DP  RH WIND       PRES   REMARKS
FARGO          MOSUNNY   82  66  58 S20G25    29.89F
JAMESTOWN      MOSUNNY   82  67  60 S15G21    29.88F
$$




USA.gov is the U.S. government's official web portal to all federal, state and local government web resources and services.